STARLINK-3643, 51992

Orbit data source: Space-Track

STARLINK-3643, 51992 is a payload satellite owned by SpaceX/Seattle (US) in LEO that was launched on Wed, 09 Mar 2022 UTC via an FALCON 9 launch vehicle from the Air Force Eastern Test Range (AFETR). Payload-class satellites include a variety of spacecraft equipped with specific instruments for various scientific and technological missions. These include communications satellites like Starlink; space stations such as the ISS; scientific satellites like the Hubble; Earth observation satellites from companies like Planet Labs, Umbra, and HawkEye 360; GPS; miniature CubeSats for education and research; and military/defense satellites.

Loading next visibility...
Identifier
51992, 2022-025AN
Orbit
LEO
Country
Flag of USUS
Related business
Manufacturer
SpaceX/Seattle
Mission
Operational Commercial Communications
Bus & Motor
STARLINK, Unknown motor
Mass
297 kg wet, ~275 kg dry
Launch date (UTC)
2022-03-09 (4 years ago)
Launch vehicle
FALCON 9
Launch site
Air Force Eastern Test Range (AFETR)
Object type
Payload
Rocket body
Debris
Shape & HBR
Box + 1 Pan, 10.1 m
Radar Cross Section
13.562 m², Large (>1 m²)

Expand to show TLE details & history
Last TLE update: 3 days ago

TLE from 3 days ago
0 STARLINK-3643
1 51992U 22025AN  26170.67840131 -.00000211  00000-0  48257-5 0  9999
2 51992  53.1601 281.1619 0001302  90.5478 269.5663 15.08835520236309
Epoch: 2026-06-19T16:16Z
TLE epoch observation values (Epoch: 2026-06-19T16:16:53.873Z)
Latitude
0.00002°
Longitude
129.03352°
Altitude
540.655 km
Speed
7.593 km/s
True Right ascension
18h 44m 38s
True Declination
0° 00' 00"
Sunlit
Object was in full shadow at epoch
Visualization orbit readout
Latitude
Unknown
Longitude
Unknown
Altitude
Unknown
Speed
Unknown
Apparent Right ascension
Unknown
Apparent Declination
Unknown
Sunlit
N/A
Visualization observer readout
Local Sidereal Time
21:37:45
Azimuth
Unknown
Elevation
Unknown
Doppler factor
Unknown
Orbital elements
Apogee altitude
540.912 km
Perigee altitude
539.11 km
Semi-major axis
6,918.148 km
Eccentricity
0.00013
Inclination
53.1601°
RAAN
281.1619°
Arg. of periapsis
90.5478°
True anomaly
269.55138°
Mean anomaly
269.5663°
Eccentric anomaly
269.55884°
Mean motion
3.77188 °/min
Orbital period
95.44 mins
BSTAR
0.0000048257
Loading maneuver chart data...
Computing Atmospheric mass density...
Loading historical data...
Loading historical data...
Loading historical data...
Loading historical data...
Loading historical data...
Loading historical data...
Loading historical data...

Documentation

Showing up to 5 results
|